Location: Noulens
(43.8099°N, 0.1664°E)
Time: 08:47:09
(UTC+00:00)

Cosmos 1515 Rocket - Pass Details

Date: 07 June 2020
Orbit: 605 x 631 km, 82.5° (Epoch: 15 July)

Event Time Altitude Azimuth Distance (km) Brightness Sun altitude
Rises 03:23:16 0° 355° (N) 2,893 7.6 -8.5°
Reaches altitude 10° 03:25:32 10° 359° (N) 1,979 6.8 -8.2°
Maximum altitude 03:29:52 60° 79° (E) 702 4.2 -7.7°
Drops below altitude 10° 03:34:08 10° 160° (SSE) 1,952 5.9 -7.1°
Sets 03:36:21 0° 164° (SSE) 2,849 6.7 -6.8°
